Location: Alfortville
(48.8058°N, 2.4204°E)
Time: 23:04:40
(UTC+00:00)

Envisat - Visible Passes

Search period start: 26 November 2022 00:00
Search period end: 06 December 2022 00:00
Orbit: 763 x 765 km, 98.2° (Epoch: 26 November)

Date Brightness Start Highest point End Pass type
(mag) Time Alt. Az. Time Alt. Az. Time Alt. Az.
26 Nov 4.4 03:43:00 10° NNE 03:46:17 34° NE 03:46:17 34° NE visible
26 Nov 3.8 05:22:25 10° N 05:26:27 28° WNW 05:26:27 28° WNW visible
26 Nov 6.0 16:43:26 10° WSW 16:46:00 14° W 16:48:35 10° NW visible
27 Nov 5.4 03:06:38 10° NE 03:08:38 18° ENE 03:08:38 18° ENE visible
27 Nov 3.4 04:45:01 10° N 04:48:48 44° NNW 04:48:48 44° NNW visible
28 Nov 4.0 04:07:55 10° NNE 04:11:09 40° NNE 04:11:09 40° NNE visible
28 Nov 4.3 05:48:00 10° NNW 05:51:20 19° NW 05:51:20 19° NW visible
29 Nov 5.0 03:31:11 10° NNE 03:33:31 24° NE 03:33:31 24° NE visible
29 Nov 3.8 05:10:18 10° N 05:13:41 31° NW 05:13:41 31° NW visible
29 Nov 5.8 16:30:33 10° SW 16:33:54 17° W 16:37:15 10° NW visible
30 Nov 5.8 02:55:04 10° NE 02:55:54 13° NE 02:55:54 13° NE visible
30 Nov 3.9 04:32:59 10° N 04:36:04 37° N 04:36:04 37° N visible
30 Nov 4.7 06:14:08 10° NNW 06:16:09 12° NW 06:16:14 12° NW visible
01 Dec 4.6 03:56:01 10° NNE 03:58:27 28° NNE 03:58:27 28° NNE visible
01 Dec 4.3 05:35:46 10° N 05:38:37 21° NW 05:38:37 21° NW visible
01 Dec 6.4 16:58:44 10° W 16:59:19 10° W 16:59:54 10° WNW visible
02 Dec 5.4 03:19:25 10° NNE 03:20:50 17° NE 03:20:50 17° NE visible
02 Dec 4.1 04:58:12 10° N 05:01:00 29° NNW 05:01:00 29° NNW visible
03 Dec 4.4 04:21:01 10° NNE 04:23:24 28° NNE 04:23:24 28° NNE visible
03 Dec 4.6 06:01:34 10° NNW 06:03:34 15° NW 06:03:34 15° NW visible
04 Dec 5.1 03:44:08 10° NNE 03:45:48 20° NNE 03:45:48 20° NNE visible
04 Dec 4.3 05:23:36 10° N 05:25:58 22° NNW 05:25:58 22° NNW visible
04 Dec 6.0 16:44:47 10° WSW 16:47:11 13° W 16:49:35 10° WNW visible
05 Dec 5.8 03:07:42 10° NE 03:08:13 12° NE 03:08:13 12° NE visible
05 Dec 4.4 04:46:10 10° N 04:48:23 25° N 04:48:23 25° N visible
